ONEWEB-0058, 45161

Orbit data source: Space-Track

ONEWEB-0058, 45161 is a payload satellite owned by One Web (UK) in LEO that was launched on Thu, 06 Feb 2020 UTC via a SOYUZ-2-1B launch vehicle from the Tyuratam Missile And Space Complex (TTMTR). Payload-class satellites include a variety of spacecraft equipped with specific instruments for various scientific and technological missions. These include communications satellites like Starlink; space stations such as the ISS; scientific satellites like the Hubble; Earth observation satellites from companies like Planet Labs, Umbra, and HawkEye 360; GPS; miniature CubeSats for education and research; and military/defense satellites.

Loading next visibility...
Identifier
45161, 2020-008AG
Orbit
LEO
Country
Flag of UKUK
Related business
Manufacturer
One Web
Mission
Operational Commercial Communications
Bus & Motor
ARROW, Unknown motor
Mass
148 kg wet, ~140 kg dry
Launch date (UTC)
2020-02-06 (6 years ago)
Launch vehicle
SOYUZ-2-1B
Launch site
Tyuratam Missile And Space Complex (TTMTR)
Object type
Payload
Rocket body
Debris
Shape & HBR
Trap Box + 2 Pan, 2.5 m
Radar Cross Section
2.957 m², Large (>1 m²)

Expand to show TLE details & history
Last TLE update: 8 hours ago

TLE from 8 hours ago
0 ONEWEB-0058
1 45161U 20008AG  25260.91984218  .00000171  00000-0  45410-3 0  9990
2 45161  87.8729  90.5800 0001495  84.9969 275.1329 13.10369606272764
Epoch: 2025-09-17T22:04Z
TLE epoch observation values (Epoch: 2025-09-17T22:04:34.364Z)
Latitude
-0.00001°
Longitude
122.34794°
Altitude
1,224.516 km
Speed
7.242 km/s
True Right ascension
06h 02m 19s
True Declination
0° 00' 00"
Sunlit
Object was in daylight at epoch
Visualization orbit readout
Latitude
Unknown
Longitude
Unknown
Altitude
Unknown
Speed
Unknown
Apparent Right ascension
Unknown
Apparent Declination
Unknown
Sunlit
N/A
Visualization observer readout
Local Sidereal Time
22:29:40
Azimuth
Unknown
Elevation
Unknown
Doppler factor
Unknown
Orbital elements
Apogee altitude
1,219.985 km
Perigee altitude
1,217.714 km
Semi-major axis
7,596.987 km
Eccentricity
0.00015
Inclination
87.8729°
RAAN
90.58°
Arg. of periapsis
84.9969°
True anomaly
275.11584°
Mean anomaly
275.1329°
Eccentric anomaly
275.12437°
Mean motion
3.27779 °/min
Orbital period
109.83 mins
BSTAR
0.0004541
Loading maneuver chart data...
Computing Atmospheric mass density...
Loading historical data...
Loading historical data...
Loading historical data...
Loading historical data...
Loading historical data...
Loading historical data...
Loading historical data...

Documentation

Showing up to 5 results
|